This is the latest recevied weather packets stored in our database for station/object KJ7HSW. If no packets are shown the sender has not sent any weather packets the latest 1 day(s).
| Time | Temp. | Humidity | Pressure | Rain* | Wind** | Luminosity | Snow |
|---|---|---|---|---|---|---|---|
| 1836274744 | 14.44° C | 93% | 1015.2 hPa | 0 mm | 0 m/s | 0 W/m² | - |
| 1836274442 | 14.44° C | 93% | 1015.1 hPa | 0 mm | 0.89 m/s, 281° | 0 W/m² | - |
| 1836274295 | 14.44° C | 93% | 1015.2 hPa | 0 mm | 0 m/s | 0 W/m² | - |
| 1836274139 | 14.44° C | 92% | 1015.1 hPa | 0 mm | 0 m/s | 0 W/m² | - |
| 1778054321 | 11.67° C | 92% | 1016 hPa | 0 mm | 1.34 m/s, 208° | 0 W/m² | - |
| 1778054018 | 11.67° C | 91% | 1016 hPa | 0 mm | 1.34 m/s, 193° | 0 W/m² | - |
| 1778053716 | 11.67° C | 91% | 1016 hPa | 0 mm | 0.89 m/s, 214° | 0 W/m² | - |
| 1778053412 | 12.22° C | 91% | 1016.2 hPa | 0 mm | 1.79 m/s, 218° | 0 W/m² | - |
| 1778053110 | 12.22° C | 90% | 1015.9 hPa | 0 mm | 1.34 m/s, 205° | 0 W/m² | - |
| 1778052808 | 12.22° C | 90% | 1015.9 hPa | 0 mm | 1.34 m/s, 198° | 0 W/m² | - |
| 1778052504 | 12.78° C | 89% | 1015.8 hPa | 0 mm | 1.79 m/s, 218° | 0 W/m² | - |
| 1778052202 | 12.78° C | 89% | 1015.7 hPa | 0 mm | 1.34 m/s, 226° | 0 W/m² | - |
| 1778051899 | 12.78° C | 89% | 1015.8 hPa | 0 mm | 1.79 m/s, 211° | 0 W/m² | - |
| 1778051597 | 12.78° C | 88% | 1015.7 hPa | 0 mm | 1.34 m/s, 206° | 0 W/m² | - |
| 1778051294 | 12.78° C | 88% | 1015.6 hPa | 0 mm | 0.89 m/s, 188° | 0 W/m² | - |
| 1778050991 | 13.33° C | 87% | 1015.7 hPa | 0 mm | 1.34 m/s, 167° | 0 W/m² | - |
| 1778050688 | 13.33° C | 87% | 1015.6 hPa | 0 mm | 0.89 m/s, 199° | 0 W/m² | - |
| 1778050386 | 13.33° C | 87% | 1015.5 hPa | 0 mm | 1.34 m/s, 188° | 0 W/m² | - |
| 1778050082 | 13.33° C | 87% | 1015.5 hPa | 0 mm | 0.89 m/s, 180° | 0 W/m² | - |
| 1778049778 | 13.33° C | 86% | 1015.4 hPa | 0 mm | 0.89 m/s, 182° | 0 W/m² | - |
| 1778049475 | 13.33° C | 86% | 1015.4 hPa | 0 mm | 1.34 m/s, 202° | 0 W/m² | - |
| 1778049173 | 13.33° C | 86% | 1015.5 hPa | 0 mm | 1.34 m/s, 188° | 0 W/m² | - |
| 1778048871 | 13.33° C | 86% | 1015.3 hPa | 0 mm | 0.89 m/s, 183° | 0 W/m² | - |
| 1778048568 | 13.33° C | 87% | 1015.4 hPa | 0 mm | 1.34 m/s, 185° | 0 W/m² | - |
| 1778048264 | 13.33° C | 87% | 1015.4 hPa | 0 mm | 0.89 m/s, 209° | 0 W/m² | - |
* Rain latest hour (hover to see other rain measurements)
** Current wind speed in m/s (hover to see current wind gust speed)